This is the latest recevied weather packets stored in our database for station/object KB4NWJ. If no packets are shown the sender has not sent any weather packets the latest 10 day(s).
| Time | Temp. | Humidity | Pressure | Rain* | Wind** | Luminosity | Snow |
|---|---|---|---|---|---|---|---|
| 1777741047 | 19.44° C | 54% | 1014.6 hPa | 0 mm | - | 668 W/m² | - |
| 1777740745 | 18.89° C | 54% | 1014.7 hPa | 0 mm | - | 616 W/m² | - |
| 1777740441 | 19.44° C | 55% | 1014.6 hPa | 0 mm | - | 563 W/m² | - |
| 1777740139 | 18.89° C | 55% | 1014.6 hPa | 0 mm | - | 609 W/m² | - |
| 1777739834 | 18.33° C | 54% | 1014.7 hPa | 0 mm | - | 696 W/m² | - |
| 1777739531 | 18.33° C | 57% | 1014.7 hPa | 0 mm | - | 700 W/m² | - |
| 1777739228 | 18.89° C | 57% | 1014.7 hPa | 0 mm | - | 604 W/m² | - |
| 1777738924 | 18.89° C | 53% | 1014.7 hPa | 0 mm | - | 616 W/m² | - |
| 1777738622 | 19.44° C | 53% | 1014.7 hPa | 0 mm | - | 483 W/m² | - |
| 1777738318 | 18.89° C | 57% | 1014.6 hPa | 0 mm | - | 711 W/m² | - |
| 1777738016 | 17.78° C | 57% | 1014.7 hPa | 0 mm | - | 540 W/m² | - |
| 1777737715 | 17.78° C | 59% | 1014.6 hPa | 0 mm | - | 714 W/m² | - |
| 1777737413 | 18.33° C | 58% | 1014.6 hPa | 0 mm | - | 707 W/m² | - |
| 1777737110 | 18.89° C | 57% | 1014.9 hPa | 0 mm | - | 746 W/m² | - |
| 1777736806 | 17.78° C | 57% | 1014.9 hPa | 0 mm | - | 622 W/m² | - |
| 1777736177 | 18.89° C | 55% | 1014.2 hPa | 0 mm | - | 518 W/m² | - |
| 1777735875 | 19.44° C | 58% | 1014.5 hPa | 0 mm | - | 482 W/m² | - |
| 1777735572 | 18.89° C | 64% | 1014.9 hPa | 0 mm | - | 908 W/m² | - |
| 1777735269 | 17.78° C | 64% | 1015 hPa | 0 mm | - | 811 W/m² | - |
| 1777734966 | 16.67° C | 62% | 1014.7 hPa | 0 mm | - | 681 W/m² | - |
| 1777734663 | 16.67° C | 68% | 1015 hPa | 0 mm | - | 386 W/m² | - |
| 1777734361 | 16.67° C | 67% | 1015 hPa | 0 mm | - | 546 W/m² | - |
| 1777734056 | 15° C | 73% | 1014.7 hPa | 0 mm | - | 402 W/m² | - |
| 1777733753 | 13.89° C | 73% | 1014.9 hPa | 0 mm | - | 368 W/m² | - |
| 1777733450 | 15° C | 70% | 1014.7 hPa | 0 mm | - | 366 W/m² | - |
* Rain latest hour (hover to see other rain measurements)
** Current wind speed in m/s (hover to see current wind gust speed)